Location: Étouvelles
(49.5207°N, 3.5808°E)
Time: 09:30:59
(UTC+00:00)

CZ-4 R/B - Pass Details

Date: 03 February 2023
Orbit: 526 x 587 km, 97.7° (Epoch: 24 March)

Event Time Altitude Azimuth Distance (km) Brightness Sun altitude
Rises 19:33:19 0° 193° (SSW) 2,803 5.0 -27.6°
Reaches altitude 10° 19:35:42 10° 205° (SSW) 1,901 4.2 -28.0°
Maximum altitude 19:39:17 28° 265° (W) 1,097 3.4 -28.5°
Drops below altitude 10° 19:42:51 10° 325° (NW) 1,887 4.5 -29.1°
Sets 19:45:14 0° 337° (NNW) 2,778 5.3 -29.5°
